Tracking 22879 objects as of 21-Apr-2021
HD Live streaming from Space Station
objects crossing your sky now

STARLINK-2303

Track STARLINK-2303 now!
10-day predictions
STARLINK-2303 is classified as:


NORAD ID: 47981
Int'l Code: 2021-024E
Perigee: 389.3 km
Apogee: 390.8 km
Inclination: 53.0 °
Period: 92.2 minutes
Semi major axis: 6761 km
RCS: Unknown
Launch date: March 24, 2021
Source: United States (US)
Launch site: AIR FORCE EASTERN TEST RANGE (AFETR)
aabbcc
Your satellite tracking list
Your tracking list is empty




NASA's NSSDC Master Catalog

Two Line Element Set (TLE):
1 47981U 21024E   21110.83335648 -.01189700  00000-0 -15075-1 0  9990
2 47981  53.0488  67.9155 0001133  63.1422 334.6530 15.61636695  5117
Source of the keplerian elements: AFSPC